• In Kazakhstan
  • List of Countries
  • For 7 days
  • Water Temperature
  • Weather Map
  • News
  • Weather Widgets
  • user-avatar
    Login

    Hourly Weather Samos

    Today, 19 January, Sunday

    Time Temperature Precipitation Wind Pressure Humidity
    00:00 -1°C° 0 mm 6 mps 721 mmHg 75%
    01:00 -1°C° 0 mm 6 mps 721 mmHg 74%
    02:00 -1°C° 0 mm 6 mps 721 mmHg 73%
    03:00 -2°C° 0 mm 6 mps 721 mmHg 73%
    04:00 -2°C° 0 mm 6 mps 721 mmHg 73%
    05:00 -2°C° 0 mm 6 mps 721 mmHg 73%
    06:00 -3°C° 0 mm 6 mps 721 mmHg 73%
    07:00 -3°C° 0 mm 6 mps 721 mmHg 73%
    08:00 -2°C° 0 mm 5 mps 721 mmHg 72%
    09:00 0°C° 0 mm 5 mps 722 mmHg 66%
    10:00 +1°C° 0 mm 5 mps 722 mmHg 61%
    11:00 +3°C° 0 mm 5 mps 722 mmHg 55%
    12:00 +3°C° 0 mm 6 mps 722 mmHg 54%
    13:00 +4°C° 0 mm 6 mps 722 mmHg 52%
    14:00 +5°C° 0 mm 6 mps 722 mmHg 51%
    15:00 +4°C° 0 mm 6 mps 722 mmHg 54%
    16:00 +4°C° 0 mm 6 mps 722 mmHg 56%
    17:00 +3°C° 0 mm 7 mps 723 mmHg 59%
    18:00 +3°C° 0 mm 7 mps 723 mmHg 61%
    19:00 +2°C° 0 mm 7 mps 723 mmHg 63%
    20:00 0°C° 0 mm 7 mps 724 mmHg 66%
    21:00 0°C° 0 mm 7 mps 724 mmHg 68%
    22:00 -1°C° 0 mm 7 mps 725 mmHg 70%
    23:00 -1°C° 0 mm 7 mps 725 mmHg 72%

    Tomorrow, 20 January, Monday

    Time Temperature Precipitation Wind Pressure Humidity
    00:00 -1°C° 0 mm 7 mps 725 mmHg 75%
    01:00 -2°C° 0 mm 8 mps 726 mmHg 77%
    02:00 -2°C° 0 mm 8 mps 726 mmHg 79%
    03:00 -2°C° 0 mm 8 mps 726 mmHg 80%
    04:00 -4°C° 0 mm 8 mps 727 mmHg 81%
    05:00 -4°C° 0 mm 8 mps 727 mmHg 82%
    06:00 -4°C° 0 mm 8 mps 727 mmHg 82%
    07:00 -4°C° 0 mm 8 mps 728 mmHg 82%
    08:00 -4°C° 0 mm 8 mps 728 mmHg 81%
    09:00 -1°C° 0 mm 8 mps 729 mmHg 73%
    10:00 0°C° 0 mm 8 mps 729 mmHg 65%
    11:00 +2°C° 0 mm 8 mps 730 mmHg 57%
    12:00 +3°C° 0 mm 9 mps 730 mmHg 56%
    13:00 +5°C° 0 mm 9 mps 730 mmHg 55%
    14:00 +5°C° 0 mm 9 mps 730 mmHg 54%
    15:00 +5°C° 0 mm 9 mps 731 mmHg 58%
    16:00 +3°C° 0 mm 10 mps 731 mmHg 61%
    17:00 +2°C° 0 mm 10 mps 731 mmHg 65%
    18:00 +1°C° 0 mm 10 mps 731 mmHg 69%
    19:00 0°C° 0 mm 10 mps 732 mmHg 73%
    20:00 -2°C° 0 mm 10 mps 732 mmHg 77%
    21:00 -2°C° 0 mm 10 mps 733 mmHg 79%
    22:00 -1°C° 0 mm 9 mps 733 mmHg 80%
    23:00 -3°C° 0 mm 9 mps 733 mmHg 81%

    Day after tomorrow, 21 January, Tuesday

    Time Temperature Precipitation Wind Pressure Humidity
    00:00 -3°C° 0 mm 9 mps 733 mmHg 81%
    01:00 -3°C° 0 mm 9 mps 733 mmHg 82%
    02:00 -3°C° 0 mm 9 mps 733 mmHg 83%
    03:00 -3°C° 0 mm 9 mps 733 mmHg 83%
    04:00 -4°C° 0 mm 10 mps 733 mmHg 83%
    05:00 -4°C° 0 mm 10 mps 732 mmHg 83%
    06:00 -4°C° 0 mm 10 mps 733 mmHg 82%
    07:00 -4°C° 0 mm 9 mps 733 mmHg 81%
    08:00 -4°C° 0 mm 9 mps 733 mmHg 80%
    09:00 -3°C° 0 mm 9 mps 733 mmHg 74%
    10:00 0°C° 0 mm 9 mps 733 mmHg 67%
    11:00 +1°C° 0 mm 9 mps 733 mmHg 60%
    12:00 +2°C° 0 mm 8 mps 732 mmHg 57%
    13:00 +4°C° 0 mm 8 mps 732 mmHg 54%
    14:00 +4°C° 0 mm 8 mps 732 mmHg 51%
    15:00 +3°C° 0 mm 9 mps 731 mmHg 54%
    16:00 +2°C° 0 mm 9 mps 731 mmHg 57%
    17:00 +2°C° 0 mm 9 mps 731 mmHg 60%
    18:00 +1°C° 0 mm 8 mps 731 mmHg 64%
    19:00 0°C° 0 mm 8 mps 731 mmHg 68%
    20:00 -1°C° 0 mm 8 mps 731 mmHg 72%
    21:00 -1°C° 0 mm 8 mps 731 mmHg 74%
    22:00 -2°C° 0 mm 8 mps 730 mmHg 76%
    23:00 -2°C° 0 mm 8 mps 730 mmHg 78%

    22 January, Wednesday

    Time Temperature Precipitation Wind Pressure Humidity
    00:00 -2°C° 0 mm 8 mps 730 mmHg 79%
    01:00 -4°C° 0 mm 8 mps 730 mmHg 80%
    02:00 -4°C° 0 mm 8 mps 729 mmHg 81%
    03:00 -4°C° 0 mm 8 mps 729 mmHg 81%
    04:00 -4°C° 0 mm 8 mps 729 mmHg 81%
    05:00 -4°C° 0 mm 8 mps 729 mmHg 81%
    06:00 -4°C° 0 mm 8 mps 729 mmHg 80%
    07:00 -3°C° 0 mm 7 mps 729 mmHg 79%
    08:00 -3°C° 0 mm 7 mps 729 mmHg 78%
    09:00 -2°C° 0 mm 7 mps 729 mmHg 70%
    10:00 +1°C° 0 mm 6 mps 729 mmHg 62%
    11:00 +3°C° 0 mm 6 mps 728 mmHg 54%
    12:00 +4°C° 0 mm 6 mps 728 mmHg 51%
    13:00 +5°C° 0 mm 6 mps 728 mmHg 48%
    14:00 +7°C° 0 mm 6 mps 727 mmHg 44%
    15:00 +7°C° 0 mm 6 mps 727 mmHg 47%
    16:00 +5°C° 0 mm 6 mps 727 mmHg 49%
    17:00 +4°C° 0 mm 6 mps 727 mmHg 51%
    18:00 +5°C° 0 mm 5 mps 727 mmHg 53%
    19:00 +3°C° 0 mm 5 mps 726 mmHg 54%
    20:00 +2°C° 0 mm 5 mps 726 mmHg 55%
    21:00 +1°C° 0 mm 5 mps 726 mmHg 56%
    22:00 +1°C° 0 mm 4 mps 726 mmHg 58%
    23:00 0°C° 0 mm 4 mps 726 mmHg 59%

    23 January, Thursday

    Time Temperature Precipitation Wind Pressure Humidity
    00:00 0°C° 0 mm 4 mps 725 mmHg 59%
    01:00 0°C° 0 mm 4 mps 725 mmHg 59%
    02:00 0°C° 0 mm 4 mps 725 mmHg 60%
    03:00 -1°C° 0 mm 4 mps 725 mmHg 59%
    04:00 -1°C° 0 mm 4 mps 724 mmHg 59%
    05:00 0°C° 0 mm 3 mps 724 mmHg 59%
    06:00 0°C° 0 mm 3 mps 724 mmHg 58%
    07:00 0°C° 0 mm 3 mps 724 mmHg 57%
    08:00 0°C° 0 mm 3 mps 724 mmHg 56%
    09:00 +2°C° 0 mm 3 mps 724 mmHg 50%
    10:00 +4°C° 0 mm 3 mps 724 mmHg 44%
    11:00 +7°C° 0 mm 2 mps 724 mmHg 39%
    12:00 +7°C° 0 mm 4 mps 724 mmHg 40%
    13:00 +7°C° 0 mm 5 mps 723 mmHg 42%
    14:00 +8°C° 0 mm 7 mps 723 mmHg 44%
    15:00 +8°C° 0 mm 7 mps 724 mmHg 46%
    16:00 +6°C° 0 mm 7 mps 724 mmHg 48%
    17:00 +5°C° 0 mm 8 mps 724 mmHg 50%
    18:00 +3°C° 0 mm 9 mps 725 mmHg 56%
    19:00 +2°C° 0 mm 10 mps 725 mmHg 62%
    20:00 0°C° 0 mm 10 mps 726 mmHg 68%
    21:00 0°C° 0 mm 10 mps 726 mmHg 68%
    22:00 -2°C° 0 mm 10 mps 727 mmHg 68%
    23:00 -3°C° 0 mm 10 mps 727 mmHg 68%

    24 January, Friday

    Time Temperature Precipitation Wind Pressure Humidity
    00:00 -3°C° 0 mm 11 mps 728 mmHg 67%
    01:00 -3°C° 0 mm 11 mps 728 mmHg 66%
    02:00 -4°C° 0 mm 11 mps 728 mmHg 66%
    03:00 -4°C° 0 mm 11 mps 728 mmHg 67%
    04:00 -5°C° 0 mm 12 mps 729 mmHg 68%
    05:00 -5°C° 0 mm 12 mps 729 mmHg 69%
    06:00 -5°C° 0 mm 12 mps 729 mmHg 69%
    07:00 -4°C° 0 mm 11 mps 730 mmHg 69%
    08:00 -4°C° 0 mm 11 mps 730 mmHg 69%
    09:00 -3°C° 0 mm 11 mps 730 mmHg 63%
    10:00 -2°C° 0 mm 10 mps 731 mmHg 57%
    11:00 0°C° 0 mm 10 mps 731 mmHg 51%
    12:00 0°C° 0 mm 10 mps 731 mmHg 49%
    13:00 +1°C° 0 mm 10 mps 731 mmHg 47%
    14:00 +1°C° 0 mm 11 mps 731 mmHg 45%
    15:00 +1°C° 0 mm 10 mps 731 mmHg 47%
    16:00 0°C° 0 mm 10 mps 731 mmHg 50%
    17:00 0°C° 0 mm 10 mps 731 mmHg 52%
    18:00 -1°C° 0 mm 9 mps 731 mmHg 54%
    19:00 -3°C° 0 mm 9 mps 731 mmHg 57%
    20:00 -4°C° 0 mm 8 mps 731 mmHg 60%
    21:00 -4°C° 0 mm 8 mps 732 mmHg 64%
    22:00 -5°C° 0 mm 8 mps 732 mmHg 67%
    23:00 -4°C° 0 mm 7 mps 732 mmHg 71%
    Show more